COSMOS 2251 DEB, 34955

Orbit data source: Space-Track

COSMOS 2251 DEB, 34955 is space debris in LEO originally from a launch on Wed, 16 Jun 1993 UTC launched from the Plesetsk Missile And Space Complex (PKMTR). The debris from Iridium 33, an American commercial communications satellite, has been tracked extensively since its accidental collision with the defunct Russian satellite Cosmos 2251 in 2009. This event, occurring at high speed in low Earth orbit (LEO), generated thousands of pieces of space debris, significantly increasing the risk of further collisions. The Iridium 33 debris cloud has impacted space traffic management and orbital debris mitigation strategies, making it a subject of ongoing study in space situational awareness.

Loading next visibility...
Identifier
34955, 1993-036AEJ
Orbit
LEO
Country
Flag of CISCIS
Related business
Manufacturer
Unknown
Mission
Spacecraft
Bus & Motor
Unknown
Mass
Unknown
Launch date (UTC)
1993-06-16 (33 years ago)
Launch vehicle
Unknown
Launch site
Plesetsk Missile And Space Complex (PKMTR)
Object type
Payload
Rocket body
Debris
Shape & HBR
Unknown shape, 0.1 m
Radar Cross Section
Small (<0.1 m²)

Expand to show TLE details & history
Last TLE update: 18 hours ago

TLE from 18 hours ago
0 COSMOS 2251 DEB
1 34955U 93036AEJ 26207.56028146  .00007291  00000-0  49618-3 0  9996
2 34955  74.0350 145.5012 0070831 157.4954 202.9370 15.04406038934267
Epoch: 2026-07-26T13:26Z
TLE epoch observation values (Epoch: 2026-07-26T13:26:48.318Z)
Latitude
0.00002°
Longitude
-0.45658°
Altitude
601.298 km
Speed
7.534 km/s
True Right ascension
09h 42m 00s
True Declination
0° 00' 00"
Sunlit
Object was in daylight at epoch
Visualization orbit readout
Latitude
Unknown
Longitude
Unknown
Altitude
Unknown
Speed
Unknown
Apparent Right ascension
Unknown
Apparent Declination
Unknown
Sunlit
N/A
Visualization observer readout
Local Sidereal Time
20:29:55
Azimuth
Unknown
Elevation
Unknown
Doppler factor
Unknown
Orbital elements
Apogee altitude
599.957 km
Perigee altitude
501.799 km
Semi-major axis
6,929.015 km
Eccentricity
0.00708
Inclination
74.035°
RAAN
145.5012°
Arg. of periapsis
157.4954°
True anomaly
202.62324°
Mean anomaly
202.937°
Eccentric anomaly
202.77987°
Mean motion
3.76301 °/min
Orbital period
95.67 mins
BSTAR
0.00049618
Loading maneuver chart data...
Computing Atmospheric mass density...

Documentation

Showing up to 5 results
|